Погода в Любашевке

Погода в Любашевке : погода сейчас, прогноз погоды и архив. Всё, что Вы хотите узнать о погоде в Любашевке!

Хотите узнать прогноз погоды в Любашевке? Тогда Вам сюда: Погода в Любашевке

Поиск расширенной информации на нашем сайте:

Полезная информация: Схемы вышивки рушника на иконы.

Другие новости

Новости СМИ2

Главная страница сайта

Новости сайта

02.10.2013

Напоминаем, что на нашем новом сайте вы можете получить высокодетализированные прогнозы погоды по пунктам России, СНГ и мира (включающие важные для авиации метеовеличины, такие как направление и скорость ветра, видимость, явления погоды, количество и форма облачности, нижняя и верхняя граница облачности), а также ознакомиться с разнообразными материалами по авиационной метеорологии и подборкой полезных ссылок на эту тему.

Сайт Метеоцентр.Азия посвящён разработке технологий оптимизации авиаметеорологического обслуживания, включая проектирование и перспективное создание нескольких автоматизированных авиаметеорологических систем:
- система выпуска высокодетальных прогностических карт явлений погоды для нижнего воздушного пространства по России и ближнему зарубежью;
- система верификации прогнозов TAF (выпускаемых синоптиками официальных АМСГ РФ и ближнего зарубежья) и AUTOTAF (выпускаемых сайтом Метеоцентр.Азия) - выявление ошибок, онлайн-сопоставление с фактической погодой METAR, автоматическое внесение коррективов в прогнозы при резком отклонении фактической погоды от прогноза, подсчёт оправдываемости прогнозов по элементам и в целом;
- система обработки, анализа и отображения авиаметеорологической информации для применения провайдерами метеорологической информации.

Рекомендуем: Официальный сайт янган-тау yangantau.putevka-perm.ru.

Погода в Любашевке - сегодня

Время (UTC), дата Ветер
(°,м/с) 
Видим.   Явления Облачность Т
(°С)
Тd
(°С)
f(%) Тe
(°С)
Pmin
(гПа)
dP
(гПа)
Po
(мм)
O2
(г/м3)
Тmin Tmax R s Состояние
почвы
09 25.03.17 350 (С) 20000 м    6/6 1000 м 
[Cu med, cong]
+9.3 -4.4 38 +8  1022.7  -0.9  750  293           
12 25.03.17 310 (СЗ) 20000 м    8/3 1000 м верхняя 
[Cu med, cong|Ci]
+11 -8.6 24 +10  1020.3  -2.2  749  291           
15 25.03.17 330 (СЗ) 20000 м    9/9 600 м 
[Sc diur, vesp]
+9.2 -7.1 31 +8  1018.3  -2.1  747  292           
18 25.03.17 010 (С) 20000 м    ясно 
-6   1017.8  -0.7  747      +12.4       
21 25.03.17 тихо ()   20000 м    ясно 
+4.2 -2.3 63 +4  1016.4  -1.5  745  296           
00 26.03.17 180 (Ю) 20000 м    10/10 600 м 
[Sc]
+3.4 -0.1 78 +3  1014.7  -1.7  744  296           
03 26.03.17 260 (З) 20000 м    10/10 300 м 
[St]
+4 -0.6 72 +4  1013.9  -0.8  744  295           
06 26.03.17 330 (СЗ) 6000 м  слаб. дождь  10/10 300 м 
[Frnb|Ns]
+3.2 +0.8 84 +4  1013.6  -0.3  743  296  +2.5    0.0     
09 26.03.17 330 (СЗ) 5000 м  слаб. дождь  10/10 300 м 
[Frnb|Ns]
+3 +1.7 91 +2  1014.8  1.1  744  296           
12 26.03.17 010 (С) 4000 м  слаб. дождь  10/10 300 м 
[Frnb|Ns]
+2.8 +2.3 97 +1  1016  1.2  745  297      0.7     
15 26.03.17 350 (С) 4700 м  в посл. час дождь  10/10 300 м 
[St]
+3.6 +2.9 95 +2  1017.4  1.4  746  296           
18 26.03.17 340 (С) 4000 м  дымка{дождь}  6/0 средняя, верхняя 
[Ac trans|Ci fib]
+2.7 +1.7 93 +1  1019.3  1.8  747  298    +3.7     
21 26.03.17 340 (С) 4000 м  дымка  9/0 средняя, верхняя 
[Ac und|Ci fib]
+2.6 +0.8 88 +2  1020.8  1.5  749  299           
00 27.03.17 300 (СЗ) 4000 м  дымка  ясно 
+0.2 -1.2 90 -1  1020.9  -0.1  749  301           
03 27.03.17 300 (СЗ) 4000 м  дымка  ясно 
-0.8 -1.7 94 -3  1020.1  -0.9  748  302           
06 27.03.17 280 (З) 14000 м    9/9 600 м 
[Sc]
+1.5 -0.7 85 -1  1018.8  -1.1  747  299  -0.8         
09 27.03.17 280 (З) 20000 м    10/8 600 м средняя 
[Sc|Ac und]
+4.8 +0.1 72 +3  1016.5  -1.2  746  295           
12 27.03.17 290 (З) 20000 м    4/4 1000 м 
[Cu med, cong]
+12 +1.1 47 +11  1013.2  -2.6  744  287           
15 27.03.17 340 (С) 20000 м    4/4 1000 м 
[Cu hum]
+12.7 -0.5 40 +12  1013.6  0.4  744  286           
18 27.03.17 290 (З) 20000 м    ясно 
+6.8 +0.7 65 +7  1016  1.9  745  293    +14.3       
21 27.03.17 280 (З) 20000 м    ясно 
+5.9 +1.1 71 +6  1017.1  746  294           
00 28.03.17 280 (З) 20000 м    ясно 
+4.9 +1.9 81 +4  1017.2  746  295           
03 28.03.17 280 (З) 20000 м    ясно 
+5.2 +2 80 +4  1016.2  -0.9  745  294           
06 28.03.17 270 (З) 20000 м    9/6 600 м средняя 
[Sc|Ac trans]
+8.3 +4 74 +7  1015.4  -0.5  745  291  +4         
09 28.03.17 280 (З) 20000 м    3/0 средняя, верхняя 
[Ac trans|Ci fib]
+15.3 +3.4 45 +15  1012.8  -2.1  743  283           
Время (UTC), дата Ветер
(°,м/с) 
Видим.   Явления Облачность Т
(°С)
Тd
(°С)
f(%) Тe
(°С)
Pmin
(гПа)
dP
(гПа)
Po
(мм)
O2
(г/м3)
Тmin Tmax R s Состояние
почвы

Для получения пояснительной информации подведите курсор к названию столбца.

ПОГОДА в Любашевке - архив

Всё, что Вы хотите узнать о погоде в Любашевке - удобно и подробно!

Выберите нужную дату (начиная с 1 января 2015* года) и нажмите кнопку "Найти".
Будут отображены архивные сводки погоды по пункту Любашевка, начиная с указанной даты.


Отображать данные в формате CSV (для использования в таблицах Excel)


Внимание! Наш архив погоды предназначен исключительно для личного некоммерческого использования в познавательных целях. Если Вам необходимы официальные справки о состоянии погоды (для производственных, юридических, коммерческих и т.п. целей), обращайтесь в органы Росгидромета.

*Примечание: данная дата относится к архиву по метеостанциям СССР (Россия, СНГ, Балтия).
Архив по метеостанциям Зарубежной Европы и Азии (кроме Китая) хранится 10 дней, по другим регионам земного шара (Китай, Африка, Америка, Австралия, Океания) - 1 день.

Любашевка - район местоположения метеостанции


Название, широта, долгота, высота метеостанции:
Любашевка 47.9°ш. 30.3°д. 183 м над ур. моря [Украина]

Дополнительная информация

В oтличие oт бoльшинства пoгoдных сайтoв мы публикуем пoдрoбную метеoинфoрмацию в детальнoм прoфессиoнальнoм фoрмате.

Характеристики температуры и влажнoсти вoздуха измеряются на высoте 2 м в тени вдали oт зданий и деревьев.
Скoрoсть ветра измеряется на высoте 10 м (на урoвне рoста челoвека скoрoсть ветра ниже в 1.5-2 раза). Если метеoстанция нахoдится в гoрoде или в лесу, тo скoрoсть ветра занижена на 2-4 м/с пo сравнению с oткрытым местoм. Скoрoсть ветра над акватoриями крупных рек и oзёр, а также на вершинах хoлмoв на 2-5 м/с выше, чем в oбычных услoвиях.
Атмoсфернoе давление в разных тoчках местнoсти мoжет значительнo oтличаться oт давления на метеoстанции, в зависимoсти oт услoвий рельефа (при пoдъёме на 10 м давление пoнижается примернo на 1 мм рт.ст.).